| time (UTC) | temp F | wind direction | speed MPH | gust MPH | rain 1hr in | rain 24hr in | rain mn in | humidity % | barometer mb |
| 20260506003030 | 75 | 276 | 16.0 | 25.0 | 0.00 | 0.00 | 0.00 | 31 | 1002.9 |
| 20260506001528 | 75 | 297 | 15.0 | 24.0 | 0.00 | 0.00 | 0.00 | 30 | 1002.8 |
| 20260506000028 | 76 | 294 | 20.0 | 31.0 | 0.00 | 0.00 | 0.00 | 30 | 1002.9 |
| 20260505234535 | 76 | 264 | 16.0 | 27.0 | 0.00 | 0.00 | 0.00 | 29 | 1002.7 |
| 20260505233029 | 77 | 283 | 15.0 | 29.0 | 0.00 | 0.00 | 0.00 | 28 | 1002.6 |
| 20260505231529 | 78 | 302 | 22.0 | 34.0 | 0.00 | 0.00 | 0.00 | 27 | 1002.4 |
| 20260505230024 | 77 | 245 | 10.0 | 20.0 | 0.00 | 0.00 | 0.00 | 27 | 1002.3 |
| 20260505224527 | 77 | 259 | 10.0 | 19.0 | 0.00 | 0.00 | 0.00 | 27 | 1002.4 |
| 20260505223019 | 76 | 269 | 12.0 | 19.0 | 0.00 | 0.00 | 0.00 | 28 | 1002.5 |
| 20260505221617 | 76 | 360 | 11.0 | 22.0 | 0.00 | 0.00 | 0.00 | 28 | 1002.6 |
| 20260505220013 | 75 | 274 | 12.0 | 22.0 | 0.00 | 0.00 | 0.00 | 29 | 1002.7 |
| 20260505214514 | 75 | 283 | 10.0 | 22.0 | 0.00 | 0.00 | 0.00 | 28 | 1003.1 |
| 20260505213016 | 75 | 360 | 12.0 | 22.0 | 0.00 | 0.00 | 0.00 | 27 | 1003.3 |
| 20260505211527 | 75 | 284 | 15.0 | 27.0 | 0.00 | 0.00 | 0.00 | 26 | 1003.6 |
| 20260505210011 | 76 | 272 | 13.0 | 25.0 | 0.00 | 0.00 | 0.00 | 27 | 1003.7 |
| 20260505204508 | 75 | 265 | 12.0 | 23.0 | 0.00 | 0.00 | 0.00 | 28 | 1003.4 |
| 20260505203004 | 75 | 360 | 12.0 | 19.0 | 0.00 | 0.00 | 0.00 | 27 | 1003.5 |
| 20260505201506 | 75 | 266 | 11.0 | 20.0 | 0.00 | 0.00 | 0.00 | 29 | 1003.7 |
| 20260505200003 | 75 | 281 | 14.0 | 23.0 | 0.00 | 0.00 | 0.00 | 29 | 1003.8 |
| 20260505194504 | 75 | 276 | 13.0 | 22.0 | 0.00 | 0.00 | 0.00 | 29 | 1003.8 |
| 20260505193001 | 75 | 252 | 9.0 | 18.0 | 0.00 | 0.00 | 0.00 | 30 | 1003.8 |
| 20260505191602 | 75 | 277 | 11.0 | 18.0 | 0.00 | 0.00 | 0.00 | 30 | 1003.9 |
| 20260505190057 | 75 | 272 | 9.0 | 16.0 | 0.00 | 0.00 | 0.00 | 30 | 1004.1 |
| 20260505184558 | 74 | 360 | 9.0 | 16.0 | 0.00 | 0.00 | 0.00 | 29 | 1004.2 |
| 20260505183057 | 75 | 277 | 8.0 | 15.0 | 0.00 | 0.00 | 0.00 | 28 | 1004.5 |
| 20260505181553 | 75 | 243 | 6.0 | 13.0 | 0.00 | 0.00 | 0.00 | 29 | 1004.6 |
| 20260505180057 | 74 | 248 | 5.0 | 12.0 | 0.00 | 0.00 | 0.00 | 29 | 1004.4 |
| 20260505174549 | 74 | 261 | 6.0 | 13.0 | 0.00 | 0.00 | 0.00 | 29 | 1004.5 |
| 20260505173047 | 74 | 274 | 5.0 | 8.0 | 0.00 | 0.00 | 0.00 | 30 | 1004.4 |
| 20260505171546 | 74 | 290 | 5.0 | 9.0 | 0.00 | 0.00 | 0.00 | 31 | 1004.6 |
| 20260505170044 | 73 | 360 | 6.0 | 10.0 | 0.00 | 0.00 | 0.00 | 32 | 1004.9 |
| 20260505164542 | 73 | 285 | 6.0 | 12.0 | 0.00 | 0.00 | 0.00 | 32 | 1004.8 |
| 20260505163040 | 73 | 296 | 8.0 | 12.0 | 0.00 | 0.00 | 0.00 | 32 | 1004.9 |
| 20260505161540 | 73 | 284 | 7.0 | 11.0 | 0.00 | 0.00 | 0.00 | 32 | 1004.7 |
| 20260505153034 | 71 | 274 | 5.0 | 10.0 | 0.00 | 0.00 | 0.00 | 34 | 1004.8 |
| 20260505151539 | 70 | 360 | 4.0 | 8.0 | 0.00 | 0.00 | 0.00 | 35 | 1004.6 |
| 20260505124515 | 68 | 288 | 4.0 | 8.0 | 0.00 | 0.00 | 0.00 | 33 | 1003.1 |
| 20260505123013 | 68 | 290 | 5.0 | 9.0 | 0.00 | 0.00 | 0.00 | 31 | 1003.1 |
| 20260505121511 | 69 | 290 | 6.0 | 9.0 | 0.00 | 0.00 | 0.00 | 30 | 1002.9 |
| 20260505120014 | 69 | 283 | 7.0 | 13.0 | 0.00 | 0.00 | 0.00 | 30 | 1002.7 |
| 20260505114511 | 67 | 288 | 8.0 | 14.0 | 0.00 | 0.00 | 0.00 | 32 | 1002.4 |
| 20260505113008 | 66 | 290 | 5.0 | 9.0 | 0.00 | 0.00 | 0.00 | 37 | 1002.5 |
| 20260505111519 | 67 | 279 | 6.0 | 9.0 | 0.00 | 0.00 | 0.00 | 36 | 1002.2 |
| 20260505101515 | 67 | 281 | 10.0 | 16.0 | 0.00 | 0.00 | 0.00 | 33 | 1002.3 |
| 20260505100005 | 67 | 266 | 9.0 | 15.0 | 0.00 | 0.00 | 0.00 | 35 | 1002.5 |
| 20260505094503 | 66 | 268 | 6.0 | 11.0 | 0.00 | 0.00 | 0.00 | 37 | 1002.3 |
| 20260505093004 | 65 | 270 | 6.0 | 10.0 | 0.00 | 0.00 | 0.00 | 39 | 1002.2 |
| 20260505091501 | 65 | 249 | 4.0 | 8.0 | 0.00 | 0.00 | 0.00 | 40 | 1002.2 |
| 20260505090104 | 66 | 255 | 3.0 | 7.0 | 0.00 | 0.00 | 0.00 | 39 | 1002.3 |
| 20260505084607 | 65 | 263 | 4.0 | 10.0 | 0.00 | 0.00 | 0.00 | 40 | 1002.4 |
| 20260505083107 | 65 | 259 | 3.0 | 7.0 | 0.00 | 0.00 | 0.00 | 41 | 1002.5 |
| 20260505081556 | 66 | 261 | 3.0 | 6.0 | 0.00 | 0.00 | 0.00 | 40 | 1002.6 |
| 20260505080050 | 67 | 262 | 3.0 | 8.0 | 0.00 | 0.00 | 0.00 | 37 | 1002.6 |
| 20260505074548 | 67 | 267 | 5.0 | 8.0 | 0.00 | 0.00 | 0.00 | 37 | 1002.6 |
| 20260505073044 | 67 | 258 | 3.0 | 7.0 | 0.00 | 0.00 | 0.00 | 37 | 1002.5 |
| 20260505071539 | 68 | 256 | 4.0 | 7.0 | 0.00 | 0.00 | 0.00 | 36 | 1002.7 |
| 20260505070036 | 69 | 256 | 4.0 | 7.0 | 0.00 | 0.00 | 0.00 | 35 | 1002.7 |
| 20260505064526 | 70 | 259 | 5.0 | 11.0 | 0.00 | 0.00 | 0.00 | 32 | 1002.9 |
| 20260505063020 | 71 | 264 | 7.0 | 12.0 | 0.00 | 0.00 | 0.00 | 31 | 1003.0 |
| 20260505061519 | 71 | 269 | 7.0 | 13.0 | 0.00 | 0.00 | 0.00 | 30 | 1002.9 |
| 20260505060010 | 71 | 278 | 9.0 | 15.0 | 0.00 | 0.00 | 0.00 | 30 | 1003.0 |
| 20260505054509 | 72 | 262 | 7.0 | 11.0 | 0.00 | 0.00 | 0.00 | 29 | 1003.1 |
| 20260505053014 | 71 | 279 | 7.0 | 11.0 | 0.00 | 0.00 | 0.00 | 30 | 1003.2 |
| 20260505051508 | 71 | 276 | 6.0 | 11.0 | 0.00 | 0.00 | 0.00 | 31 | 1003.4 |
| 20260505041506 | 73 | 280 | 8.0 | 13.0 | 0.00 | 0.00 | 0.00 | 26 | 1003.4 |
| 20260505040013 | 72 | 269 | 6.0 | 10.0 | 0.00 | 0.00 | 0.00 | 28 | 1003.4 |
| 20260505034504 | 72 | 261 | 6.0 | 12.0 | 0.00 | 0.00 | 0.00 | 27 | 1003.4 |
| 20260505033010 | 72 | 262 | 7.0 | 10.0 | 0.00 | 0.00 | 0.00 | 27 | 1003.4 |
| 20260505031503 | 73 | 269 | 7.0 | 11.0 | 0.00 | 0.00 | 0.00 | 26 | 1003.2 |
| 20260505030008 | 73 | 277 | 7.0 | 12.0 | 0.00 | 0.00 | 0.00 | 25 | 1003.3 |
| 20260505024502 | 74 | 285 | 9.0 | 15.0 | 0.00 | 0.00 | 0.00 | 24 | 1003.2 |
| 20260505023001 | 75 | 272 | 10.0 | 16.0 | 0.00 | 0.00 | 0.00 | 23 | 1003.0 |
| 20260505021501 | 75 | 288 | 10.0 | 17.0 | 0.00 | 0.00 | 0.00 | 23 | 1002.9 |
| 20260505020003 | 76 | 360 | 7.0 | 12.0 | 0.00 | 0.00 | 0.00 | 22 | 1002.9 |
| 20260505014608 | 77 | 265 | 9.0 | 16.0 | 0.00 | 0.00 | 0.00 | 21 | 1002.8 |
| 20260505013103 | 77 | 280 | 10.0 | 17.0 | 0.00 | 0.00 | 0.00 | 20 | 1002.6 |
| 20260505011613 | 78 | 264 | 8.0 | 12.0 | 0.00 | 0.00 | 0.00 | 19 | 1002.6 |
| 20260505010106 | 79 | 274 | 11.0 | 18.0 | 0.00 | 0.00 | 0.00 | 18 | 1002.8 |
| 20260505004600 | 79 | 251 | 11.0 | 22.0 | 0.00 | 0.00 | 0.00 | 17 | 1002.8 |